When you browse on this site, cookies collect data to enhance your experience and personalize the content and advertising you see.
Visit our Privacy Policy to learn more. By continuing to use the site, you agree to this use of cookies and data.

Previsão horária em Aarau

Hoje, 26 Setembro, Sábado

Tempo Temperatura Precipitação Vento Pressão Humidade
00:00 +6°C° 0.9 mm 4 m/s 716 mmHg 95%
01:00 +6°C° 0.9 mm 4 m/s 717 mmHg 95%
02:00 +6°C° 0.3 mm 4 m/s 717 mmHg 94%
03:00 +6°C° 0.3 mm 4 m/s 717 mmHg 94%
04:00 +5°C° 0.3 mm 5 m/s 717 mmHg 94%
05:00 +5°C° 0.1 mm 5 m/s 717 mmHg 93%
06:00 +5°C° 0.1 mm 5 m/s 717 mmHg 92%
07:00 +3°C° 0.1 mm 5 m/s 717 mmHg 92%
08:00 +5°C° 0.8 mm 5 m/s 717 mmHg 91%
09:00 +4°C° 0.8 mm 6 m/s 718 mmHg 91%
10:00 +4°C° 0.8 mm 6 m/s 718 mmHg 91%
11:00 +5°C° 0.5 mm 6 m/s 718 mmHg 88%
12:00 +7°C° 0.5 mm 6 m/s 717 mmHg 85%
13:00 +7°C° 0.5 mm 6 m/s 717 mmHg 82%
14:00 +7°C° 0.4 mm 6 m/s 717 mmHg 85%
15:00 +6°C° 0.4 mm 5 m/s 717 mmHg 89%
16:00 +6°C° 0.4 mm 5 m/s 717 mmHg 92%
17:00 +6°C° 0.8 mm 5 m/s 717 mmHg 93%
18:00 +5°C° 0.8 mm 4 m/s 717 mmHg 94%
19:00 +5°C° 0.8 mm 4 m/s 717 mmHg 95%
20:00 +5°C° 0.8 mm 4 m/s 718 mmHg 95%
21:00 +5°C° 0.8 mm 4 m/s 718 mmHg 95%
22:00 +5°C° 0.8 mm 4 m/s 718 mmHg 95%
23:00 +5°C° 0.1 mm 3 m/s 718 mmHg 94%

Amanhã, 27 Setembro, Domingo

Tempo Temperatura Precipitação Vento Pressão Humidade
00:00 +5°C° 0.1 mm 3 m/s 718 mmHg 94%
01:00 +5°C° 0.1 mm 3 m/s 718 mmHg 94%
02:00 +4°C° 0 mm 3 m/s 718 mmHg 93%
03:00 +4°C° 0 mm 3 m/s 717 mmHg 93%
04:00 +4°C° 0 mm 3 m/s 717 mmHg 92%
05:00 +4°C° 0.1 mm 3 m/s 717 mmHg 91%
06:00 +4°C° 0.1 mm 3 m/s 717 mmHg 91%
07:00 +5°C° 0.1 mm 3 m/s 717 mmHg 90%
08:00 +5°C° 0.1 mm 4 m/s 717 mmHg 86%
09:00 +6°C° 0.1 mm 5 m/s 717 mmHg 82%
10:00 +7°C° 0.1 mm 5 m/s 716 mmHg 77%
11:00 +7°C° 0.4 mm 5 m/s 716 mmHg 80%
12:00 +7°C° 0.4 mm 4 m/s 717 mmHg 83%
13:00 +7°C° 0.4 mm 4 m/s 717 mmHg 86%
14:00 +8°C° 0.2 mm 4 m/s 717 mmHg 85%
15:00 +8°C° 0.2 mm 5 m/s 717 mmHg 84%
16:00 +8°C° 0.2 mm 5 m/s 717 mmHg 82%
17:00 +8°C° 0 mm 4 m/s 718 mmHg 84%
18:00 +8°C° 0 mm 3 m/s 718 mmHg 86%
19:00 +7°C° 0 mm 2 m/s 718 mmHg 88%
20:00 +7°C° 0 mm 2 m/s 719 mmHg 89%
21:00 +7°C° 0 mm 2 m/s 719 mmHg 90%
22:00 +6°C° 0 mm 2 m/s 720 mmHg 91%
23:00 +7°C° 0 mm 2 m/s 719 mmHg 90%

Depois de amanhã, 28 Setembro, Segunda-feira

Tempo Temperatura Precipitação Vento Pressão Humidade
00:00 +8°C° 0 mm 1 m/s 719 mmHg 89%
01:00 +8°C° 0 mm 1 m/s 719 mmHg 89%
02:00 +8°C° 0 mm 1 m/s 719 mmHg 88%
03:00 +8°C° 0 mm 1 m/s 720 mmHg 87%
04:00 +8°C° 0 mm 1 m/s 720 mmHg 86%
05:00 +8°C° 0.1 mm 1 m/s 720 mmHg 87%
06:00 +8°C° 0.1 mm 1 m/s 720 mmHg 88%
07:00 +8°C° 0.1 mm 1 m/s 720 mmHg 90%
08:00 +10°C° 0 mm 1 m/s 720 mmHg 87%
09:00 +10°C° 0 mm 2 m/s 720 mmHg 85%
10:00 +12°C° 0 mm 2 m/s 720 mmHg 83%
11:00 +11°C° 0.1 mm 3 m/s 721 mmHg 84%
12:00 +12°C° 0.1 mm 3 m/s 721 mmHg 84%
13:00 +12°C° 0.1 mm 3 m/s 721 mmHg 85%
14:00 +11°C° 0.6 mm 3 m/s 721 mmHg 89%
15:00 +11°C° 0.6 mm 3 m/s 722 mmHg 92%
16:00 +10°C° 0.6 mm 3 m/s 722 mmHg 96%
17:00 +10°C° 0.6 mm 3 m/s 722 mmHg 96%
18:00 +11°C° 0.6 mm 3 m/s 723 mmHg 96%
19:00 +11°C° 0.6 mm 3 m/s 723 mmHg 96%
20:00 +11°C° 0.2 mm 3 m/s 724 mmHg 96%
21:00 +11°C° 0.2 mm 3 m/s 724 mmHg 95%
22:00 +11°C° 0.2 mm 3 m/s 724 mmHg 95%
23:00 +11°C° 1 mm 3 m/s 725 mmHg 96%

29 Setembro, Terça-feira

Tempo Temperatura Precipitação Vento Pressão Humidade
00:00 +11°C° 1 mm 3 m/s 725 mmHg 96%
01:00 +12°C° 1 mm 3 m/s 725 mmHg 97%
02:00 +12°C° 0.3 mm 3 m/s 725 mmHg 97%
03:00 +12°C° 0.3 mm 3 m/s 726 mmHg 97%
04:00 +13°C° 0.3 mm 2 m/s 726 mmHg 97%
05:00 +12°C° 0.1 mm 2 m/s 726 mmHg 96%
06:00 +12°C° 0.1 mm 2 m/s 726 mmHg 96%
07:00 +12°C° 0.1 mm 1 m/s 727 mmHg 96%
08:00 +13°C° 0 mm 1 m/s 727 mmHg 92%
09:00 +13°C° 0 mm 1 m/s 727 mmHg 89%
10:00 +14°C° 0 mm 1 m/s 727 mmHg 85%
11:00 +15°C° 0 mm 1 m/s 727 mmHg 76%
12:00 +18°C° 0 mm 1 m/s 728 mmHg 66%
13:00 +19°C° 0 mm 1 m/s 728 mmHg 57%
14:00 +19°C° 0 mm 1 m/s 728 mmHg 56%
15:00 +18°C° 0 mm 1 m/s 727 mmHg 56%
16:00 +17°C° 0 mm 2 m/s 727 mmHg 56%
17:00 +15°C° 0 mm 1 m/s 727 mmHg 63%
18:00 +13°C° 0 mm 1 m/s 727 mmHg 71%
19:00 +10°C° 0 mm 0 m/s 727 mmHg 78%
20:00 +10°C° 0 mm 0 m/s 727 mmHg 80%
21:00 +10°C° 0 mm 0 m/s 727 mmHg 81%
22:00 +9°C° 0 mm 0 m/s 727 mmHg 83%
23:00 +9°C° 0 mm 0 m/s 727 mmHg 85%

30 Setembro, Quarta-feira

Tempo Temperatura Precipitação Vento Pressão Humidade
00:00 +9°C° 0 mm 0 m/s 727 mmHg 86%
01:00 +9°C° 0 mm 0 m/s 727 mmHg 88%
02:00 +8°C° 0 mm 0 m/s 727 mmHg 89%
03:00 +8°C° 0 mm 0 m/s 726 mmHg 90%
04:00 +8°C° 0 mm 0 m/s 726 mmHg 91%
05:00 +8°C° 0 mm 0 m/s 726 mmHg 91%
06:00 +8°C° 0 mm 0 m/s 726 mmHg 91%
07:00 +8°C° 0 mm 0 m/s 726 mmHg 91%
08:00 +10°C° 0 mm 0 m/s 726 mmHg 81%
09:00 +14°C° 0 mm 1 m/s 726 mmHg 72%
10:00 +18°C° 0 mm 1 m/s 726 mmHg 63%
11:00 +19°C° 0 mm 1 m/s 726 mmHg 58%
12:00 +20°C° 0 mm 1 m/s 726 mmHg 54%
13:00 +21°C° 0 mm 1 m/s 725 mmHg 50%
14:00 +21°C° 0 mm 1 m/s 725 mmHg 51%
15:00 +21°C° 0 mm 1 m/s 725 mmHg 53%
16:00 +21°C° 0 mm 1 m/s 724 mmHg 55%
17:00 +18°C° 0 mm 1 m/s 724 mmHg 64%
18:00 +15°C° 0 mm 1 m/s 724 mmHg 72%
19:00 +12°C° 0 mm 0 m/s 723 mmHg 81%
20:00 +11°C° 0 mm 0 m/s 723 mmHg 83%
21:00 +12°C° 0 mm 1 m/s 723 mmHg 85%
22:00 +11°C° 0 mm 1 m/s 723 mmHg 87%
23:00 +10°C° 0 mm 0 m/s 723 mmHg 88%

1 Outubro, Quinta-feira

Tempo Temperatura Precipitação Vento Pressão Humidade
00:00 +10°C° 0 mm 0 m/s 722 mmHg 89%
01:00 +9°C° 0 mm 0 m/s 722 mmHg 89%
02:00 +9°C° 0 mm 0 m/s 721 mmHg 90%
03:00 +9°C° 0 mm 0 m/s 721 mmHg 90%
04:00 +9°C° 0 mm 0 m/s 721 mmHg 90%
05:00 +9°C° 0 mm 0 m/s 720 mmHg 90%
06:00 +9°C° 0 mm 1 m/s 720 mmHg 90%
07:00 +9°C° 0 mm 1 m/s 720 mmHg 90%
08:00 +11°C° 0 mm 0 m/s 720 mmHg 82%
09:00 +13°C° 0 mm 0 m/s 720 mmHg 73%
10:00 +16°C° 0 mm 0 m/s 720 mmHg 65%
11:00 +17°C° 0 mm 0 m/s 720 mmHg 60%
12:00 +21°C° 0 mm 1 m/s 720 mmHg 56%
13:00 +23°C° 0 mm 1 m/s 720 mmHg 51%
14:00 +23°C° 0 mm 1 m/s 720 mmHg 52%
15:00 +22°C° 0 mm 1 m/s 719 mmHg 53%
16:00 +22°C° 0 mm 1 m/s 719 mmHg 54%
17:00 +20°C° 0 mm 1 m/s 719 mmHg 63%
18:00 +18°C° 0 mm 1 m/s 719 mmHg 72%
19:00 +14°C° 0 mm 1 m/s 719 mmHg 81%
20:00 +14°C° 0 mm 1 m/s 719 mmHg 82%
21:00 +13°C° 0 mm 1 m/s 719 mmHg 83%
22:00 +13°C° 0 mm 1 m/s 719 mmHg 85%
23:00 +13°C° 0 mm 1 m/s 719 mmHg 85%
Mostrar mais